Home   Weather   Córdoba   Past weeks

Flag for Spain Past Weather in Córdoba, Spain — Yesterday and Last 2 Weeks

Now
48 °F

Passing clouds.


Feels Like: 47 °F
Forecast: 46 / 68 °F
Wind: 3 mph from East

Location: Cordoba / Aeropuerto

Current Time: Feb 20, 2017 at 7:13:11 am

Latest Report: Feb 20, 2017 at 6:30 am


Visibility: N/A

Pressure: 30.12 "Hg

Humidity: 71%

Dew Point: 39 °F

Location of CórdobaLocation

Past Weather in Córdoba — Graph

°F

Córdoba Temperature Yesterday

Maximum temperature yesterday: 66 °F (at 3:00 pm)
Minimum temperature yesterday: 48 °F (at 4:30 am)
Average temperature yesterday: 54 °F

High & Low Weather Summary for the Past Weeks

 TemperatureHumidityPressure
High66 °F (Feb 15, 3:00 pm)100% (Feb 7, 4:00 am)30.48 "Hg (Feb 7, 4:00 am)
Low34 °F (Feb 9, 5:00 am)31% (Feb 8, 4:00 pm)29.45 "Hg (Feb 12, 7:00 pm)
Average51 °F78%30.13 "Hg
* Reported Feb 5 10:00 am — Feb 20 6:00 am, Córdoba, Weather by CustomWeather, © 2017

Note: Actual official high and low records may vary slightly from our data, if they occured in-between our weather recording intervals... More about our weather records

Advertising

Córdoba Weather History for the Previous 24 Hours

Scroll right to see more
 ConditionsComfort  
Time TempWeatherWind HumidityBarometerVisibility
6:00 am
Mon, Feb 20
46 °FClear.3 mph82%30.12 "Hg10 mi
5:30 am48 °FClear.7 mph76%30.12 "Hg10 mi
5:00 am50 °FClear.8 mph67%30.12 "Hg10 mi
4:30 am50 °FClear.7 mph71%30.12 "Hg10 mi
4:00 am48 °FPassing clouds.3 mph76%30.15 "HgN/A
3:30 am50 °FClear.8 mph71%30.15 "Hg10 mi
3:00 am48 °FCool.8 mph76%30.15 "HgN/A
2:30 am48 °FCool.9 mph76%30.18 "HgN/A
2:00 am48 °FCool.8 mph76%30.18 "HgN/A
1:30 am48 °FCool.8 mph76%30.18 "HgN/A
1:00 am48 °FCool.8 mph76%30.18 "HgN/A
12:30 am50 °FCool.7 mph76%30.18 "HgN/A
12:00 am50 °FCool.2 mph76%30.18 "HgN/A
11:30 pm
Sun, Feb 19
50 °FCool.1 mph76%30.18 "HgN/A
11:00 pm50 °FCool.2 mph76%30.18 "HgN/A
10:30 pm50 °FCool.8 mph82%30.18 "HgN/A
10:00 pm52 °FClear.7 mph77%30.18 "Hg10 mi
9:30 pm52 °FClear.6 mph77%30.18 "Hg10 mi
9:00 pm54 °FClear.8 mph72%30.15 "Hg10 mi
8:30 pm55 °FClear.6 mph72%30.15 "Hg10 mi
8:00 pm57 °FClear.6 mph67%30.12 "Hg10 mi
7:30 pm57 °FPassing clouds.6 mph67%30.12 "HgN/A
7:00 pm59 °FCool.8 mph63%30.12 "HgN/A
6:30 pm63 °FMild.8 mph56%30.09 "HgN/A
6:00 pm63 °FMild.9 mph56%30.09 "HgN/A
5:30 pm64 °FSunny.14 mph49%30.09 "Hg10 mi
5:00 pm64 °FSunny.13 mph49%30.09 "Hg10 mi
4:30 pm64 °FMild.15 mph52%30.09 "HgN/A
4:00 pm66 °FPassing clouds.16 mph46%30.09 "HgN/A
3:30 pm66 °FPassing clouds.17 mph46%30.09 "HgN/A
3:00 pm66 °FPassing clouds.14 mph49%30.09 "HgN/A
2:30 pm64 °FPassing clouds.15 mph52%30.09 "HgN/A
2:00 pm63 °FPassing clouds.14 mph59%30.12 "HgN/A
1:30 pm61 °FPassing clouds.14 mph63%30.12 "HgN/A
1:00 pm61 °FSunny.12 mph68%30.12 "Hg10 mi
12:30 pm57 °FPassing clouds.13 mph72%30.15 "HgN/A
12:00 pm55 °FPassing clouds.12 mph77%30.15 "HgN/A
11:30 am55 °FPassing clouds.10 mph77%30.15 "HgN/A
11:00 am52 °FPassing clouds.8 mph88%30.15 "HgN/A
10:30 am52 °FPassing clouds.5 mph82%30.12 "HgN/A
10:00 am50 °FPassing clouds.5 mph88%30.12 "HgN/A
9:30 am50 °FPassing clouds.10 mph88%30.12 "HgN/A
9:00 am50 °FPassing clouds.9 mph88%30.12 "HgN/A
8:30 am50 °FScattered clouds.8 mph88%30.09 "HgN/A
8:00 am48 °FPassing clouds.3 mph94%30.09 "HgN/A
7:30 am48 °FClear.8 mph87%30.07 "Hg10 mi
7:00 am48 °FClear.8 mph87%30.07 "Hg10 mi
Weather by CustomWeather, © 2017

See weather overviewHow to use our weather pages